TimeEDT,TemperatureF,Dew PointF,Humidity,Sea Level PressureIn,VisibilityMPH,Wind Direction,Wind SpeedMPH,Gust SpeedMPH,PrecipitationIn,Events,Conditions,WindDirDegrees,DateUTC
12:53 AM,63.0,44.1,50,29.88,10.0,Calm,Calm,-,N/A,,Overcast,0,2013-03-17 04:53:00
1:53 AM,62.1,45.0,53,29.88,10.0,SW,9.2,-,N/A,,Overcast,220,2013-03-17 05:53:00
2:53 AM,61.0,45.0,56,29.87,10.0,SW,6.9,-,N/A,,Overcast,220,2013-03-17 06:53:00
3:53 AM,62.1,45.0,53,29.86,10.0,SW,10.4,-,N/A,,Overcast,220,2013-03-17 07:53:00
4:53 AM,62.1,45.0,53,29.86,10.0,SW,8.1,-,N/A,,Overcast,230,2013-03-17 08:53:00
5:53 AM,62.1,44.1,52,29.88,10.0,West,6.9,-,N/A,,Overcast,280,2013-03-17 09:53:00
6:53 AM,60.1,44.1,55,29.90,10.0,WSW,8.1,-,N/A,,Mostly Cloudy,250,2013-03-17 10:53:00
7:53 AM,60.1,43.0,53,29.91,10.0,WSW,9.2,-,N/A,,Mostly Cloudy,250,2013-03-17 11:53:00
8:53 AM,59.0,44.1,58,29.92,10.0,West,6.9,-,N/A,,Mostly Cloudy,260,2013-03-17 12:53:00
9:53 AM,62.1,45.0,53,29.94,10.0,WSW,9.2,-,N/A,,Mostly Cloudy,250,2013-03-17 13:53:00
10:53 AM,63.0,46.0,54,29.94,10.0,West,10.4,-,N/A,,Mostly Cloudy,260,2013-03-17 14:53:00
11:53 AM,66.9,46.9,49,29.93,10.0,WSW,10.4,-,N/A,,Scattered Clouds,240,2013-03-17 15:53:00
12:53 PM,69.1,48.0,47,29.91,10.0,Variable,6.9,-,N/A,,Partly Cloudy,0,2013-03-17 16:53:00
1:53 PM,68.0,48.9,50,29.88,10.0,SSW,11.5,-,N/A,,Scattered Clouds,200,2013-03-17 17:53:00
2:53 PM,72.0,48.9,44,29.85,10.0,South,12.7,21.9,N/A,,Scattered Clouds,190,2013-03-17 18:53:00
3:53 PM,73.0,46.9,39,29.83,10.0,WSW,20.7,25.3,N/A,,Mostly Cloudy,240,2013-03-17 19:53:00
4:53 PM,71.1,45.0,39,29.82,10.0,SSW,20.7,-,N/A,,Mostly Cloudy,210,2013-03-17 20:53:00
5:53 PM,70.0,46.9,44,29.82,10.0,SW,17.3,-,N/A,,Overcast,220,2013-03-17 21:53:00
6:53 PM,68.0,45.0,43,29.84,10.0,SW,18.4,-,N/A,,Overcast,220,2013-03-17 22:53:00
7:53 PM,64.0,46.9,54,29.86,10.0,SW,11.5,-,N/A,,Mostly Cloudy,220,2013-03-17 23:53:00
8:53 PM,61.0,46.0,58,29.88,10.0,SW,10.4,-,N/A,,Mostly Cloudy,220,2013-03-18 00:53:00
9:53 PM,62.1,44.1,52,29.88,10.0,SSW,9.2,-,N/A,,Mostly Cloudy,200,2013-03-18 01:53:00
10:53 PM,57.0,43.0,59,29.87,10.0,SSW,6.9,-,N/A,,Scattered Clouds,200,2013-03-18 02:53:00
11:53 PM,57.0,44.1,62,29.87,10.0,SW,9.2,-,N/A,,Scattered Clouds,230,2013-03-18 03:53:00